Previsão horária em Barnab

Hoje, 21 Outubro, Quarta-feira

Tempo Temperatura Precipitação Vento Pressão Humidade
00:00 +6°C° 2.5 mm 2 m/s 615 mmHg 97%
01:00 +6°C° 2.3 mm 2 m/s 615 mmHg 97%
02:00 +5°C° 2.3 mm 2 m/s 615 mmHg 97%
03:00 +5°C° 2.3 mm 2 m/s 615 mmHg 97%
04:00 +5°C° 0.3 mm 2 m/s 615 mmHg 97%
05:00 +5°C° 0.3 mm 2 m/s 615 mmHg 97%
06:00 +6°C° 0.3 mm 1 m/s 615 mmHg 97%
07:00 +7°C° 0 mm 1 m/s 616 mmHg 97%
08:00 +7°C° 0 mm 1 m/s 616 mmHg 96%
09:00 +7°C° 0 mm 1 m/s 617 mmHg 96%
10:00 +7°C° 0.1 mm 1 m/s 617 mmHg 94%
11:00 +6°C° 0.1 mm 2 m/s 617 mmHg 93%
12:00 +7°C° 0.1 mm 2 m/s 617 mmHg 91%
13:00 +7°C° 0 mm 2 m/s 617 mmHg 89%
14:00 +8°C° 0 mm 1 m/s 616 mmHg 87%
15:00 +7°C° 0 mm 1 m/s 616 mmHg 86%
16:00 +6°C° 0 mm 1 m/s 616 mmHg 87%
17:00 +5°C° 0 mm 1 m/s 615 mmHg 88%
18:00 +4°C° 0 mm 1 m/s 615 mmHg 89%
19:00 +4°C° 0 mm 1 m/s 615 mmHg 88%
20:00 +4°C° 0 mm 1 m/s 615 mmHg 88%
21:00 +4°C° 0 mm 1 m/s 615 mmHg 88%
22:00 +3°C° 0 mm 2 m/s 615 mmHg 90%
23:00 +3°C° 0 mm 2 m/s 615 mmHg 92%

Amanhã, 22 Outubro, Quinta-feira

Tempo Temperatura Precipitação Vento Pressão Humidade
00:00 +4°C° 0 mm 2 m/s 615 mmHg 94%
01:00 +3°C° 0 mm 2 m/s 615 mmHg 92%
02:00 +3°C° 0 mm 2 m/s 614 mmHg 91%
03:00 +3°C° 0 mm 1 m/s 614 mmHg 90%
04:00 +3°C° 0 mm 1 m/s 614 mmHg 84%
05:00 +3°C° 0 mm 1 m/s 613 mmHg 79%
06:00 +3°C° 0 mm 1 m/s 613 mmHg 73%
07:00 +4°C° 0 mm 1 m/s 614 mmHg 70%
08:00 +6°C° 0 mm 1 m/s 615 mmHg 66%
09:00 +8°C° 0 mm 1 m/s 615 mmHg 63%
10:00 +9°C° 0 mm 1 m/s 615 mmHg 64%
11:00 +9°C° 0 mm 1 m/s 615 mmHg 66%
12:00 +10°C° 0 mm 1 m/s 615 mmHg 67%
13:00 +10°C° 0 mm 1 m/s 615 mmHg 67%
14:00 +10°C° 0 mm 1 m/s 615 mmHg 68%
15:00 +10°C° 0 mm 1 m/s 615 mmHg 69%
16:00 +9°C° 0 mm 1 m/s 614 mmHg 72%
17:00 +7°C° 0 mm 1 m/s 614 mmHg 76%
18:00 +5°C° 0 mm 0 m/s 613 mmHg 79%
19:00 +5°C° 0 mm 0 m/s 613 mmHg 78%
20:00 +5°C° 0 mm 1 m/s 613 mmHg 78%
21:00 +5°C° 0 mm 1 m/s 613 mmHg 77%
22:00 +5°C° 0 mm 1 m/s 613 mmHg 79%
23:00 +5°C° 0 mm 1 m/s 613 mmHg 81%

Depois de amanhã, 23 Outubro, Sexta-feira

Tempo Temperatura Precipitação Vento Pressão Humidade
00:00 +5°C° 0 mm 1 m/s 613 mmHg 83%
01:00 +4°C° 0 mm 1 m/s 613 mmHg 85%
02:00 +4°C° 0 mm 1 m/s 613 mmHg 86%
03:00 +4°C° 0 mm 1 m/s 613 mmHg 88%
04:00 +4°C° 0 mm 1 m/s 613 mmHg 86%
05:00 +4°C° 0 mm 1 m/s 613 mmHg 84%
06:00 +4°C° 0 mm 1 m/s 614 mmHg 82%
07:00 +6°C° 0 mm 1 m/s 614 mmHg 76%
08:00 +8°C° 0 mm 1 m/s 615 mmHg 69%
09:00 +9°C° 0 mm 1 m/s 616 mmHg 63%
10:00 +10°C° 0 mm 1 m/s 616 mmHg 62%
11:00 +11°C° 0 mm 1 m/s 617 mmHg 61%
12:00 +12°C° 0 mm 2 m/s 617 mmHg 60%
13:00 +12°C° 0 mm 2 m/s 617 mmHg 62%
14:00 +10°C° 0 mm 2 m/s 616 mmHg 65%
15:00 +10°C° 0 mm 2 m/s 616 mmHg 67%
16:00 +10°C° 0 mm 1 m/s 616 mmHg 71%
17:00 +8°C° 0 mm 1 m/s 615 mmHg 75%
18:00 +6°C° 0 mm 0 m/s 614 mmHg 79%
19:00 +6°C° 0 mm 1 m/s 614 mmHg 80%
20:00 +6°C° 0 mm 1 m/s 614 mmHg 81%
21:00 +6°C° 0 mm 1 m/s 614 mmHg 83%
22:00 +5°C° 0 mm 1 m/s 614 mmHg 84%
23:00 +5°C° 0 mm 1 m/s 614 mmHg 85%

24 Outubro, Sábado

Tempo Temperatura Precipitação Vento Pressão Humidade
00:00 +5°C° 0 mm 1 m/s 613 mmHg 86%
01:00 +5°C° 0 mm 1 m/s 613 mmHg 83%
02:00 +5°C° 0 mm 1 m/s 613 mmHg 80%
03:00 +5°C° 0 mm 1 m/s 613 mmHg 78%
04:00 +6°C° 0 mm 1 m/s 613 mmHg 73%
05:00 +6°C° 0 mm 1 m/s 612 mmHg 69%
06:00 +6°C° 0 mm 1 m/s 612 mmHg 65%
07:00 +8°C° 0 mm 1 m/s 613 mmHg 60%
08:00 +10°C° 0 mm 1 m/s 614 mmHg 54%
09:00 +13°C° 0 mm 1 m/s 615 mmHg 49%
10:00 +14°C° 0 mm 1 m/s 615 mmHg 50%
11:00 +15°C° 0 mm 1 m/s 615 mmHg 50%
12:00 +16°C° 0 mm 1 m/s 615 mmHg 51%
13:00 +15°C° 0 mm 1 m/s 615 mmHg 52%
14:00 +15°C° 0 mm 1 m/s 615 mmHg 54%
15:00 +15°C° 0 mm 1 m/s 615 mmHg 55%
16:00 +13°C° 0 mm 1 m/s 614 mmHg 60%
17:00 +11°C° 0 mm 1 m/s 613 mmHg 64%
18:00 +9°C° 0 mm 1 m/s 612 mmHg 68%
19:00 +9°C° 0 mm 1 m/s 612 mmHg 65%
20:00 +9°C° 0 mm 1 m/s 612 mmHg 62%
21:00 +9°C° 0 mm 1 m/s 613 mmHg 59%
22:00 +9°C° 0 mm 1 m/s 612 mmHg 58%
23:00 +9°C° 0 mm 1 m/s 612 mmHg 57%

25 Outubro, Domingo

Tempo Temperatura Precipitação Vento Pressão Humidade
00:00 +8°C° 0 mm 1 m/s 612 mmHg 56%
01:00 +8°C° 0 mm 1 m/s 612 mmHg 55%
02:00 +8°C° 0 mm 1 m/s 612 mmHg 55%
03:00 +7°C° 0 mm 2 m/s 612 mmHg 54%
04:00 +7°C° 0 mm 2 m/s 612 mmHg 55%
05:00 +7°C° 0 mm 2 m/s 612 mmHg 55%
06:00 +8°C° 0 mm 1 m/s 612 mmHg 56%
07:00 +9°C° 0 mm 2 m/s 613 mmHg 52%
08:00 +12°C° 0 mm 2 m/s 613 mmHg 49%
09:00 +14°C° 0 mm 2 m/s 614 mmHg 45%
10:00 +15°C° 0 mm 2 m/s 614 mmHg 43%
11:00 +16°C° 0 mm 2 m/s 614 mmHg 42%
12:00 +17°C° 0 mm 3 m/s 615 mmHg 40%
13:00 +17°C° 0 mm 3 m/s 614 mmHg 41%
14:00 +16°C° 0 mm 2 m/s 614 mmHg 43%
15:00 +16°C° 0 mm 2 m/s 613 mmHg 44%
16:00 +14°C° 0 mm 2 m/s 613 mmHg 49%
17:00 +12°C° 0 mm 2 m/s 612 mmHg 55%
18:00 +9°C° 0 mm 2 m/s 611 mmHg 60%
19:00 +10°C° 0 mm 1 m/s 611 mmHg 57%
20:00 +9°C° 0 mm 1 m/s 611 mmHg 53%
21:00 +9°C° 0 mm 1 m/s 611 mmHg 50%
22:00 +9°C° 0 mm 1 m/s 611 mmHg 49%
23:00 +9°C° 0 mm 1 m/s 611 mmHg 49%

26 Outubro, Segunda-feira

Tempo Temperatura Precipitação Vento Pressão Humidade
00:00 +9°C° 0 mm 1 m/s 611 mmHg 48%
01:00 +9°C° 0 mm 1 m/s 610 mmHg 49%
02:00 +9°C° 0 mm 1 m/s 610 mmHg 50%
03:00 +7°C° 0 mm 2 m/s 610 mmHg 52%
04:00 +8°C° 0 mm 1 m/s 610 mmHg 50%
05:00 +8°C° 0 mm 1 m/s 610 mmHg 48%
06:00 +8°C° 0 mm 1 m/s 610 mmHg 47%
07:00 +9°C° 0 mm 2 m/s 611 mmHg 44%
08:00 +10°C° 0 mm 2 m/s 612 mmHg 41%
09:00 +13°C° 0 mm 2 m/s 613 mmHg 38%
10:00 +14°C° 0 mm 2 m/s 613 mmHg 37%
11:00 +13°C° 0 mm 3 m/s 613 mmHg 37%
12:00 +14°C° 0 mm 3 m/s 613 mmHg 36%
13:00 +14°C° 0 mm 3 m/s 613 mmHg 38%
14:00 +13°C° 0 mm 3 m/s 612 mmHg 39%
15:00 +13°C° 0 mm 3 m/s 612 mmHg 41%
16:00 +11°C° 0 mm 3 m/s 612 mmHg 46%
17:00 +9°C° 0 mm 2 m/s 611 mmHg 51%
18:00 +8°C° 0 mm 2 m/s 611 mmHg 56%
19:00 +7°C° 0 mm 2 m/s 611 mmHg 56%
20:00 +7°C° 0 mm 2 m/s 611 mmHg 55%
21:00 +7°C° 0 mm 2 m/s 611 mmHg 55%
22:00 +7°C° 0 mm 2 m/s 611 mmHg 57%
23:00 +6°C° 0 mm 2 m/s 611 mmHg 58%

27 Outubro, Terça-feira

Tempo Temperatura Precipitação Vento Pressão Humidade
00:00 +6°C° 0 mm 2 m/s 611 mmHg 60%
01:00 +6°C° 0 mm 2 m/s 611 mmHg 62%
02:00 +6°C° 0 mm 2 m/s 611 mmHg 65%
03:00 +5°C° 0 mm 2 m/s 611 mmHg 67%
04:00 +5°C° 0 mm 2 m/s 611 mmHg 69%
05:00 +5°C° 0 mm 2 m/s 611 mmHg 71%
06:00 +5°C° 0 mm 2 m/s 611 mmHg 73%
07:00 +6°C° 0 mm 2 m/s 612 mmHg 69%
08:00 +7°C° 0 mm 2 m/s 613 mmHg 65%
09:00 +9°C° 0 mm 2 m/s 614 mmHg 61%
10:00 +9°C° 0 mm 2 m/s 614 mmHg 60%
11:00 +10°C° 0 mm 2 m/s 615 mmHg 59%
12:00 +12°C° 0 mm 2 m/s 615 mmHg 58%
13:00 +12°C° 0 mm 2 m/s 615 mmHg 60%
14:00 +12°C° 0 mm 2 m/s 615 mmHg 61%
15:00 +12°C° 0 mm 2 m/s 615 mmHg 62%
16:00 +10°C° 0 mm 1 m/s 615 mmHg 70%
17:00 +8°C° 0 mm 1 m/s 615 mmHg 79%
18:00 +6°C° 0 mm 1 m/s 614 mmHg 87%
19:00 +6°C° 0 mm 1 m/s 614 mmHg 84%
20:00 +6°C° 0 mm 1 m/s 615 mmHg 82%
21:00 +5°C° 0 mm 1 m/s 615 mmHg 80%
22:00 +5°C° 0 mm 1 m/s 615 mmHg 77%
23:00 +5°C° 0 mm 1 m/s 615 mmHg 75%
Mostrar mais